STARLINK-1323, 45553

Orbit data source: Space-Track

STARLINK-1323, 45553 is a payload satellite owned by SpaceX/Seattle (US) in LEO that was launched on Wed, 22 Apr 2020 UTC via an FALCON 9 launch vehicle from the Air Force Eastern Test Range (AFETR). Payload-class satellites include a variety of spacecraft equipped with specific instruments for various scientific and technological missions. These include communications satellites like Starlink; space stations such as the ISS; scientific satellites like the Hubble; Earth observation satellites from companies like Planet Labs, Umbra, and HawkEye 360; GPS; miniature CubeSats for education and research; and military/defense satellites.

Not visible in the next 10 days
Identifier
45553, 2020-025Y
Orbit
LEO
Country
Flag of USUS
Related business
Manufacturer
SpaceX/Seattle
Mission
Partially operational Commercial Communications
Bus & Motor
STARLINK, Unknown motor
Mass
260 kg wet, ~248 kg dry
Launch date (UTC)
2020-04-22 (5 years ago)
Launch vehicle
FALCON 9
Launch site
Air Force Eastern Test Range (AFETR)
Object type
Payload
Rocket body
Debris
Shape & HBR
Box + 1 Pan, 10.1 m
Radar Cross Section
13.562 m², Large (>1 m²)

Expand to show TLE details & history
Last TLE update: 5 hours ago

TLE from 5 hours ago
0 STARLINK-1323
1 45553U 20025Y   25288.09430770  .01082359  79098-3  81498-3 0  9993
2 45553  53.0269 314.3577 0004754  47.2564 312.8871 16.14794568303059
Epoch: 2025-10-15T02:15Z
TLE epoch observation values (Epoch: 2025-10-15T02:15:48.185Z)
Latitude
-0.00001°
Longitude
-103.46639°
Altitude
232.502 km
Speed
7.77 km/s
True Right ascension
20h 57m 25s
True Declination
0° 00' 00"
Sunlit
Object was in full shadow at epoch
Visualization orbit readout
Latitude
Unknown
Longitude
Unknown
Altitude
Unknown
Speed
Unknown
Apparent Right ascension
Unknown
Apparent Declination
Unknown
Sunlit
N/A
Visualization observer readout
Local Sidereal Time
02:14:53
Azimuth
Unknown
Elevation
Unknown
Doppler factor
Unknown
Orbital elements
Apogee altitude
237.154 km
Perigee altitude
230.867 km
Semi-major axis
6,612.148 km
Eccentricity
0.00048
Inclination
53.0269°
RAAN
314.3577°
Arg. of periapsis
47.2564°
True anomaly
312.84717°
Mean anomaly
312.8871°
Eccentric anomaly
312.86714°
Mean motion
4.03673 °/min
Orbital period
89.18 mins
BSTAR
0.00081498
Loading maneuver chart data...
Computing Atmospheric mass density...

Documentation

Showing up to 5 results
|